MAYA-6

导读

MAYA-6是菲律宾研制的1.15公斤级立方体卫星,由菲律宾大学联合日本九州理工学院开发,属于菲律宾STAMINA4Space航天计划成果。它随SpaceX猎鹰9号火箭发射至国际空间站,将在约400公里高度轨道运行,作为技术演示与教育平台,通过存储转发机制开展远程数据采集,助力菲律宾提升本土航天技术能力,服务农业、灾害监测等领域数据收集需求。

基本信息
目录编号:
57420
目录名称:
MAYA-6
国际标识:
1998-067VX
轨道中心:
EARTH
卫星名称:
MAYA-6
卫星全名:
--
卫星状态:
已陨落 最后检测时间 2023-12-12
发射日期:
1998-11-20 UTC
国别 :
(PH)
星等 :
--
轨道信息
数据来源 国际轨道数据
星历时间: 2023-12-09T06:40:27+0800
轨道信息已过期948天
半长轴: 6569.215km
偏心率: 0.0008255
轨道倾角: 51.603°
近地点辐角 277.436°
升交点赤经 165.751°
平近点角 82.573°
近地点: 185.657km
远地点: 196.503km
周期: 88.314分钟
每日圈数: 16.305441
详细信息
使用方式:
暂无